STARLINK-1090, 44968

Orbit data source: Space-Track

STARLINK-1090, 44968 is a payload satellite owned by SpaceX/Seattle (US) in LEO that was launched on Tue, 07 Jan 2020 UTC via an FALCON 9 launch vehicle from the Air Force Eastern Test Range (AFETR). Payload-class satellites include a variety of spacecraft equipped with specific instruments for various scientific and technological missions. These include communications satellites like Starlink; space stations such as the ISS; scientific satellites like the Hubble; Earth observation satellites from companies like Planet Labs, Umbra, and HawkEye 360; GPS; miniature CubeSats for education and research; and military/defense satellites.

Loading next visibility...
Identifier
44968, 2020-001BG
Orbit
LEO
Country
Flag of USUS
Related business
Manufacturer
SpaceX/Seattle
Mission
Operational Commercial Communications
Bus & Motor
STARLINK, Unknown motor
Mass
260 kg wet, ~248 kg dry
Launch date (UTC)
2020-01-07 (6 years ago)
Launch vehicle
FALCON 9
Launch site
Air Force Eastern Test Range (AFETR)
Object type
Payload
Rocket body
Debris
Shape & HBR
Box + 1 Pan, 10.1 m
Radar Cross Section
13.562 m², Large (>1 m²)

Expand to show TLE details & history
Last TLE update: 4 hours ago

TLE from 4 hours ago
0 STARLINK-1090
1 44968U 20001BG  26119.66670139  .00092307  00000-0  18677-2 0  9993
2 44968  53.1513  68.7459 0001911 100.4038 234.5356 15.45701500  5874
Epoch: 2026-04-29T16:00Z
TLE epoch observation values (Epoch: 2026-04-29T16:00:03.000Z)
Latitude
-20.01002°
Longitude
-44.63851°
Altitude
435.635 km
Speed
7.65 km/s
True Right ascension
03h 31m 59s
True Declination
-19° 53' 40"
Sunlit
Object was in daylight at epoch
Visualization orbit readout
Latitude
Unknown
Longitude
Unknown
Altitude
Unknown
Speed
Unknown
Apparent Right ascension
Unknown
Apparent Declination
Unknown
Sunlit
N/A
Visualization observer readout
Local Sidereal Time
03:41:17
Azimuth
Unknown
Elevation
Unknown
Doppler factor
Unknown
Orbital elements
Apogee altitude
430.878 km
Perigee altitude
428.276 km
Semi-major axis
6,807.714 km
Eccentricity
0.00019
Inclination
53.1513°
RAAN
68.7459°
Arg. of periapsis
100.4038°
True anomaly
234.51777°
Mean anomaly
234.5356°
Eccentric anomaly
234.52668°
Mean motion
3.86404 °/min
Orbital period
93.17 mins
BSTAR
0.0018677
Loading maneuver chart data...
Computing Atmospheric mass density...

Documentation

Showing up to 5 results
|